EDT,Max TemperatureF,Mean TemperatureF,Min TemperatureF,Max Dew PointF,MeanDew PointF,Min DewpointF,Max Humidity, Mean Humidity, Min Humidity, Max Sea Level PressureIn, Mean Sea Level PressureIn, Min Sea Level PressureIn, Max VisibilityMiles, Mean VisibilityMiles, Min VisibilityMiles, Max Wind SpeedMPH, Mean Wind SpeedMPH, Max Gust SpeedMPH,PrecipitationIn, CloudCover, Events, WindDirDegrees
2012-10-1,59,51,43,50,46,41,95,83,61,29.96,29.89,29.84,10,10,10,12,5,17,0.00,0,,252
2012-10-2,59,54,48,50,49,47,97,87,68,29.99,29.91,29.85,10,10,5,8,4,,0.00,4,,163
2012-10-3,59,53,47,55,52,47,97,93,81,30.02,30.00,29.98,10,6,0,10,5,,0.00,7,Fog-Rain,101
2012-10-4,65,60,54,56,54,43,97,85,58,29.99,29.90,29.81,10,7,0,20,4,33,0.00,6,Fog-Rain,180
2012-10-5,57,50,44,41,34,28,66,59,51,29.91,29.87,29.82,10,10,10,23,16,32,0.00,7,Rain,260
2012-10-6,46,41,36,35,31,25,80,65,46,30.08,29.91,29.78,10,10,10,22,16,31,0.00,6,,299
2012-10-7,44,38,31,36,33,30,95,78,63,30.08,30.05,30.00,10,10,10,14,6,21,0.00,6,Rain,227
2012-10-8,54,48,41,34,31,27,73,54,35,30.01,29.97,29.91,10,10,10,22,12,33,0.00,5,Rain,197
2012-10-9,51,46,42,47,40,29,94,73,43,29.90,29.76,29.66,10,10,7,24,13,36,0.14,8,Rain,212
2012-10-10,43,40,38,38,32,24,85,72,55,30.01,29.81,29.67,10,10,10,21,13,29,0.00,7,Rain,285
2012-10-11,43,38,34,40,33,25,94,76,55,30.15,29.95,29.81,10,9,3,22,11,32,0.44,6,Rain-Snow,262
2012-10-12,45,38,30,33,30,25,96,72,47,30.41,30.32,30.16,10,10,5,14,7,20,0.02,3,Rain-Snow,275
2012-10-13,47,42,39,46,35,27,97,79,57,30.30,30.02,29.76,10,8,2,13,9,21,0.51,6,Rain,157
2012-10-14,48,44,41,48,45,41,97,97,95,29.77,29.55,29.32,10,4,0,22,9,30,0.00,8,Rain,50
2012-10-15,44,42,39,40,36,32,96,82,66,29.90,29.68,29.35,10,9,4,22,14,31,0.00,8,Rain,318
2012-10-16,50,41,32,44,38,32,97,81,66,29.91,29.80,29.64,10,10,10,14,7,23,0.00,6,Rain,162
2012-10-17,64,55,46,53,45,38,90,76,53,29.64,29.52,29.44,10,10,7,14,9,22,0.00,4,Rain,120
2012-10-18,57,52,46,53,47,39,97,86,74,29.62,29.42,29.31,10,9,2,17,9,29,0.00,7,Rain,132
2012-10-19,49,46,44,47,42,38,95,86,73,29.64,29.61,29.59,10,9,2,13,6,22,0.00,6,Rain,110
2012-10-20,55,49,43,46,44,40,96,84,58,29.80,29.68,29.60,10,10,4,10,6,,0.00,4,Rain,324
2012-10-21,55,49,43,49,45,40,97,88,69,30.02,29.95,29.81,10,9,2,13,7,20,0.00,2,,239
2012-10-22,56,50,45,48,44,42,94,81,63,30.05,30.02,30.00,10,10,10,14,6,18,0.00,5,,123
2012-10-23,52,50,48,48,46,44,93,84,75,30.05,30.03,30.00,10,10,7,18,13,28,0.00,8,,94
2012-10-24,52,50,47,51,48,45,97,96,87,30.03,29.96,29.87,10,2,0,17,12,28,0.00,8,Fog,104
2012-10-25,74,62,50,60,56,49,97,76,47,29.86,29.69,29.57,10,8,0,23,10,36,0.00,4,Fog-Rain,169
2012-10-26,48,44,40,47,33,28,94,70,52,30.25,30.10,29.73,10,9,2,21,15,32,0.00,6,Rain,276
2012-10-27,45,38,32,31,25,20,78,59,41,30.30,30.27,30.24,10,10,10,12,6,18,0.00,5,,322
2012-10-28,45,40,34,30,26,22,78,62,43,30.34,30.31,30.28,10,10,10,14,8,22,0.00,1,,1
2012-10-29,42,38,34,26,21,16,64,51,39,30.29,30.22,30.05,10,10,10,23,14,36,0.00,0,,7
2012-10-30,36,34,33,34,29,20,95,80,53,30.04,29.80,29.68,10,8,2,29,22,46,0.00,7,Rain-Snow,360
2012-10-31,40,36,33,34,32,31,92,84,72,29.67,29.63,29.60,10,10,7,20,16,29,0.00,8,Rain,342